Cotopaxi International Airport
SELT : now visible

Airfield :











YOU CAN JOIN US ON...

 
LOGIN :

Register | Disclaimer

   EN    FR    IT 

 









Legend :    VFR   Marginal VFR   IFR   Intensive IFR   Very Intensive IFR
Visi :
Ceiling :
>= 8 km
>= 3000ft
5 to 8 km
1000 to 3000 ft
1500m to 5 km
500 to 1000 ft
800 to 1500m
200 to 500 ft
< 800m
< 200 ft
Symbols :   Thunderstorms  Fog  Heavy snow  Heavy precipitations  Wind > 20 kt






- Airport Elevation : 9205 ft
- IATA code : LTX


SELT - Cotopaxi International

CURRENT METAR :
  • 121800Z 17014KT 9999 BKN033 17/07 Q1027

EXPIRED METARs :
  • 121700Z 18014KT 9999 BKN033 16/07 Q1029
  • 121600Z 17015KT 9999 SCT033 17/08 Q1029

TAF SELT
Valid from the 12 at 18:00 until the 13 at 18:00 UTC


121610Z 1218/1318 18018KT 9999 SCT033 SCT300
BECMG 1303/1305 VRB03KT FEW010 BKN026
BECMG 1312/1314 18010KT SCT030 TX19/2019Z TN08/1311Z
SEGU FIR / South America



MET'MAP, your aeronautical weather chart ! - Copyright ORBIFLY December 2007 - Disclaimer

ORBIFLY MET'MAP TEAM :

Programming & Development : Alexandra Zaïnal
Concept & original design : Baudouin d'Aumeries
Assistance for programming : Marc-Olivier Méhu
Technical & hardware support : Manuel Goepfert

Contact : metmap@orbifly.com




SOURCES & CREDITS :

   NOAA       Earth
Advisory